Time,TemperatureF,DewpointF,PressureIn,WindDirection,WindDirectionDegrees,WindSpeedMPH,WindSpeedGustMPH,Humidity,HourlyPrecipIn,Conditions,Clouds,dailyrainin,SoftwareType,DateUTC
2013-06-01 04:25:00,65.7,62.7,29.80,SSW,211,7.0,-999.0,90,0.00,,,0.00,Wunderground v.1.15,2013-06-01 08:25:00,
2013-06-01 04:30:00,65.8,62.8,29.80,SSW,213,7.0,-999.0,90,0.00,,,0.00,Wunderground v.1.15,2013-06-01 08:30:00,
2013-06-01 04:35:00,65.8,62.8,29.80,SSW,213,7.0,-999.0,90,0.00,,,0.00,Wunderground v.1.15,2013-06-01 08:35:00,
2013-06-01 04:40:00,65.9,62.9,29.81,SSW,213,7.0,-999.0,90,0.00,,,0.00,Wunderground v.1.15,2013-06-01 08:40:00,
2013-06-01 04:45:00,66.0,62.7,29.81,SSW,212,7.0,-999.0,89,0.00,,,0.00,Wunderground v.1.15,2013-06-01 08:45:00,
2013-06-01 04:55:00,66.0,62.7,29.80,SSW,205,7.0,-999.0,89,0.00,,,0.00,Wunderground v.1.15,2013-06-01 08:55:00,
2013-06-01 05:00:00,65.9,62.6,29.80,SSW,213,7.0,-999.0,89,0.00,,,0.00,Wunderground v.1.15,2013-06-01 09:00:00,
2013-06-01 05:10:00,65.8,62.8,29.81,SSW,209,7.0,-999.0,90,0.00,,,0.00,Wunderground v.1.15,2013-06-01 09:10:00,
2013-06-01 05:15:00,66.0,63.0,29.81,SSW,209,7.0,-999.0,90,0.00,,,0.00,Wunderground v.1.15,2013-06-01 09:15:00,
2013-06-01 05:20:00,66.1,63.1,29.80,SSW,206,6.0,-999.0,90,0.00,,,0.00,Wunderground v.1.15,2013-06-01 09:20:00,
2013-06-01 05:25:00,66.0,62.7,29.80,SSW,209,6.0,-999.0,89,0.00,,,0.00,Wunderground v.1.15,2013-06-01 09:25:00,
2013-06-01 05:30:00,65.9,62.6,29.80,SSW,210,6.0,-999.0,89,0.00,,,0.00,Wunderground v.1.15,2013-06-01 09:30:00,
2013-06-01 05:35:00,65.8,62.8,29.81,SSW,213,6.0,-999.0,90,0.00,,,0.00,Wunderground v.1.15,2013-06-01 09:35:00,
2013-06-01 05:40:00,65.7,62.7,29.81,SSW,213,6.0,-999.0,90,0.00,,,0.00,Wunderground v.1.15,2013-06-01 09:40:00,
2013-06-01 05:45:00,65.6,62.6,29.81,SW,220,7.0,-999.0,90,0.00,,,0.00,Wunderground v.1.15,2013-06-01 09:45:00,
2013-06-01 05:50:00,65.6,62.6,29.81,SW,215,8.0,-999.0,90,0.00,,,0.00,Wunderground v.1.15,2013-06-01 09:50:00,
2013-06-01 05:55:00,65.6,62.6,29.80,SSW,213,9.0,-999.0,90,0.00,,,0.00,Wunderground v.1.15,2013-06-01 09:55:00,
2013-06-01 06:00:00,65.7,62.7,29.80,SSW,213,10.0,-999.0,90,0.00,,,0.00,Wunderground v.1.15,2013-06-01 10:00:00,
2013-06-01 06:05:00,65.8,62.8,29.80,SSW,209,10.0,-999.0,90,0.00,,,0.00,Wunderground v.1.15,2013-06-01 10:05:00,
2013-06-01 06:10:00,65.8,62.5,29.80,SSW,209,9.0,-999.0,89,0.00,,,0.00,Wunderground v.1.15,2013-06-01 10:10:00,
2013-06-01 06:15:00,65.8,62.5,29.80,SSW,211,9.0,-999.0,89,0.00,,,0.00,Wunderground v.1.15,2013-06-01 10:15:00,
2013-06-01 06:20:00,65.9,62.6,29.80,SSW,213,9.0,-999.0,89,0.00,,,0.00,Wunderground v.1.15,2013-06-01 10:20:00,
2013-06-01 06:30:00,66.1,62.8,29.81,SSW,211,9.0,-999.0,89,0.00,,,0.00,Wunderground v.1.15,2013-06-01 10:30:00,
2013-06-01 06:35:00,66.3,63.0,29.81,SSW,210,8.0,-999.0,89,0.00,,,0.00,Wunderground v.1.15,2013-06-01 10:35:00,
2013-06-01 06:45:00,66.8,63.1,29.81,SSW,211,10.0,-999.0,88,0.00,,,0.00,Wunderground v.1.15,2013-06-01 10:45:00,
2013-06-01 06:50:00,67.0,63.3,29.81,SSW,202,11.0,-999.0,88,0.00,,,0.00,Wunderground v.1.15,2013-06-01 10:50:00,
2013-06-01 06:55:00,67.1,63.1,29.80,SSW,203,10.0,-999.0,87,0.00,,,0.00,Wunderground v.1.15,2013-06-01 10:55:00,
2013-06-01 07:00:00,67.2,63.2,29.81,SW,218,11.0,-999.0,87,0.00,,,0.00,Wunderground v.1.15,2013-06-01 11:00:00,
2013-06-01 07:05:00,67.5,63.5,29.81,SSW,211,11.0,-999.0,87,0.00,,,0.00,Wunderground v.1.15,2013-06-01 11:05:00,
2013-06-01 07:10:00,67.7,63.4,29.81,SW,217,11.0,-999.0,86,0.00,,,0.00,Wunderground v.1.15,2013-06-01 11:10:00,
2013-06-01 07:15:00,67.8,63.5,29.81,SW,223,11.0,-999.0,86,0.00,,,0.00,Wunderground v.1.15,2013-06-01 11:15:00,
2013-06-01 07:20:00,68.0,63.7,29.82,SW,217,10.0,-999.0,86,0.00,,,0.00,Wunderground v.1.15,2013-06-01 11:20:00,
2013-06-01 07:25:00,68.0,63.7,29.82,SW,215,9.0,-999.0,86,0.00,,,0.00,Wunderground v.1.15,2013-06-01 11:25:00,
2013-06-01 07:30:00,68.0,63.3,29.82,SSW,206,10.0,-999.0,85,0.00,,,0.00,Wunderground v.1.15,2013-06-01 11:30:00,
2013-06-01 07:35:00,67.9,63.2,29.82,SSW,207,10.0,-999.0,85,0.00,,,0.00,Wunderground v.1.15,2013-06-01 11:35:00,
2013-06-01 07:40:00,67.9,63.6,29.82,SSW,205,9.0,-999.0,86,0.00,,,0.00,Wunderground v.1.15,2013-06-01 11:40:00,
2013-06-01 07:45:00,67.9,63.6,29.82,SSW,211,10.0,-999.0,86,0.00,,,0.00,Wunderground v.1.15,2013-06-01 11:45:00,
2013-06-01 07:50:00,68.1,63.4,29.82,SW,221,10.0,-999.0,85,0.00,,,0.00,Wunderground v.1.15,2013-06-01 11:50:00,
2013-06-01 07:55:00,68.4,63.7,29.82,SW,221,9.0,-999.0,85,0.00,,,0.00,Wunderground v.1.15,2013-06-01 11:55:00,
2013-06-01 08:00:00,68.6,63.6,29.82,SSW,204,9.0,-999.0,84,0.00,,,0.00,Wunderground v.1.15,2013-06-01 12:00:00,
2013-06-01 08:05:00,68.6,63.6,29.82,SSW,212,10.0,-999.0,84,0.00,,,0.00,Wunderground v.1.15,2013-06-01 12:05:00,
2013-06-01 08:10:00,68.8,63.8,29.82,SW,214,10.0,-999.0,84,0.00,,,0.00,Wunderground v.1.15,2013-06-01 12:10:00,
2013-06-01 08:15:00,68.8,63.8,29.82,SSW,211,9.0,-999.0,84,0.00,,,0.00,Wunderground v.1.15,2013-06-01 12:15:00,
2013-06-01 08:20:00,68.9,63.9,29.82,SW,219,9.0,-999.0,84,0.00,,,0.00,Wunderground v.1.15,2013-06-01 12:20:00,
2013-06-01 08:25:00,69.1,64.1,29.81,SW,221,9.0,-999.0,84,0.00,,,0.00,Wunderground v.1.15,2013-06-01 12:25:00,
2013-06-01 08:30:00,69.2,63.8,29.81,SW,229,9.0,-999.0,83,0.00,,,0.00,Wunderground v.1.15,2013-06-01 12:30:00,
2013-06-01 08:35:00,69.4,64.0,29.81,SSW,213,11.0,-999.0,83,0.00,,,0.00,Wunderground v.1.15,2013-06-01 12:35:00,
2013-06-01 08:40:00,69.7,64.3,29.81,SSW,203,11.0,-999.0,83,0.00,,,0.00,Wunderground v.1.15,2013-06-01 12:40:00,
2013-06-01 08:45:00,69.9,64.2,29.80,SSW,200,11.0,-999.0,82,0.00,,,0.00,Wunderground v.1.15,2013-06-01 12:45:00,
2013-06-01 08:50:00,70.0,63.9,29.80,SSW,194,12.0,-999.0,81,0.00,,,0.00,Wunderground v.1.15,2013-06-01 12:50:00,
2013-06-01 08:55:00,70.1,64.0,29.81,SSE,167,12.0,-999.0,81,0.00,,,0.00,Wunderground v.1.15,2013-06-01 12:55:00,
2013-06-01 09:00:00,70.2,64.1,29.80,SW,217,11.0,-999.0,81,0.00,,,0.00,Wunderground v.1.15,2013-06-01 13:00:00,
2013-06-01 09:05:00,70.2,64.1,29.80,SW,214,10.0,-999.0,81,0.00,,,0.00,Wunderground v.1.15,2013-06-01 13:05:00,
2013-06-01 09:10:00,70.3,64.2,29.80,SSW,210,11.0,-999.0,81,0.00,,,0.00,Wunderground v.1.15,2013-06-01 13:10:00,
2013-06-01 09:15:00,70.6,64.1,29.80,South,186,11.0,-999.0,80,0.00,,,0.00,Wunderground v.1.15,2013-06-01 13:15:00,
2013-06-01 09:20:00,70.7,64.2,29.79,South,188,12.0,-999.0,80,0.00,,,0.00,Wunderground v.1.15,2013-06-01 13:20:00,
2013-06-01 09:25:00,70.9,64.4,29.79,SSW,207,12.0,-999.0,80,0.00,,,0.00,Wunderground v.1.15,2013-06-01 13:25:00,
2013-06-01 09:30:00,71.2,64.7,29.79,SSW,205,12.0,-999.0,80,0.00,,,0.00,Wunderground v.1.15,2013-06-01 13:30:00,
2013-06-01 09:35:00,71.4,64.5,29.79,SW,219,12.0,-999.0,79,0.00,,,0.00,Wunderground v.1.15,2013-06-01 13:35:00,
2013-06-01 09:40:00,71.6,64.7,29.79,SW,219,13.0,-999.0,79,0.00,,,0.00,Wunderground v.1.15,2013-06-01 13:40:00,
2013-06-01 09:45:00,72.2,65.3,29.79,SW,221,14.0,-999.0,79,0.00,,,0.00,Wunderground v.1.15,2013-06-01 13:45:00,
2013-06-01 09:50:00,72.9,65.3,29.79,SSW,212,13.0,-999.0,77,0.00,,,0.00,Wunderground v.1.15,2013-06-01 13:50:00,
2013-06-01 09:55:00,73.2,65.2,29.78,SW,215,14.0,-999.0,76,0.00,,,0.00,Wunderground v.1.15,2013-06-01 13:55:00,
2013-06-01 10:00:00,73.5,65.5,29.78,SW,223,14.0,-999.0,76,0.00,,,0.00,Wunderground v.1.15,2013-06-01 14:00:00,
2013-06-01 10:10:00,74.5,66.1,29.78,SSW,206,13.0,-999.0,75,0.00,,,0.00,Wunderground v.1.15,2013-06-01 14:10:00,
2013-06-01 10:15:00,74.9,66.4,29.78,SW,215,12.0,-999.0,75,0.00,,,0.00,Wunderground v.1.15,2013-06-01 14:15:00,
2013-06-01 10:20:00,75.6,66.7,29.78,SSW,208,11.0,-999.0,74,0.00,,,0.00,Wunderground v.1.15,2013-06-01 14:20:00,
2013-06-01 10:25:00,76.3,67.4,29.77,SSW,196,11.0,-999.0,74,0.00,,,0.00,Wunderground v.1.15,2013-06-01 14:25:00,
2013-06-01 10:30:00,77.2,66.7,29.77,SW,225,11.0,-999.0,70,0.00,,,0.00,Wunderground v.1.15,2013-06-01 14:30:00,
2013-06-01 10:35:00,77.4,66.8,29.78,SW,227,13.0,-999.0,70,0.00,,,0.00,Wunderground v.1.15,2013-06-01 14:35:00,
2013-06-01 10:45:00,77.9,66.9,29.77,SW,220,14.0,-999.0,69,0.00,,,0.00,Wunderground v.1.15,2013-06-01 14:45:00,
2013-06-01 10:50:00,78.2,67.2,29.77,SSW,213,15.0,-999.0,69,0.00,,,0.00,Wunderground v.1.15,2013-06-01 14:50:00,
2013-06-01 10:55:00,78.5,67.5,29.77,SW,225,14.0,-999.0,69,0.00,,,0.00,Wunderground v.1.15,2013-06-01 14:55:00,
2013-06-01 11:00:00,78.8,67.3,29.77,WSW,241,13.0,-999.0,68,0.00,,,0.00,Wunderground v.1.15,2013-06-01 15:00:00,
2013-06-01 11:05:00,79.1,68.1,29.77,SW,217,13.0,-999.0,69,0.00,,,0.00,Wunderground v.1.15,2013-06-01 15:05:00,
2013-06-01 11:10:00,79.1,67.6,29.76,SW,229,14.0,-999.0,68,0.00,,,0.00,Wunderground v.1.15,2013-06-01 15:10:00,
2013-06-01 11:15:00,79.4,67.5,29.76,SSW,204,15.0,-999.0,67,0.00,,,0.00,Wunderground v.1.15,2013-06-01 15:15:00,
2013-06-01 11:20:00,79.6,68.1,29.76,South,191,15.0,-999.0,68,0.00,,,0.00,Wunderground v.1.15,2013-06-01 15:20:00,
2013-06-01 11:25:00,80.0,67.6,29.76,SSW,213,14.0,-999.0,66,0.00,,,0.00,Wunderground v.1.15,2013-06-01 15:25:00,
2013-06-01 11:30:00,79.9,67.5,29.77,SSW,196,15.0,-999.0,66,0.00,,,0.00,Wunderground v.1.15,2013-06-01 15:30:00,
2013-06-01 11:35:00,79.6,66.8,29.76,SSW,210,15.0,-999.0,65,0.00,,,0.00,Wunderground v.1.15,2013-06-01 15:35:00,
2013-06-01 11:40:00,79.8,67.0,29.77,SSW,202,16.0,-999.0,65,0.00,,,0.00,Wunderground v.1.15,2013-06-01 15:40:00,
2013-06-01 13:50:00,83.0,66.7,29.73,SW,225,17.0,-999.0,58,0.00,,,0.00,Wunderground v.1.15,2013-06-01 17:50:00,
2013-06-01 13:55:00,83.4,67.1,29.73,SW,215,16.0,-999.0,58,0.00,,,0.00,Wunderground v.1.15,2013-06-01 17:55:00,
2013-06-01 14:00:00,83.5,66.2,29.73,SW,219,16.0,-999.0,56,0.00,,,0.00,Wunderground v.1.15,2013-06-01 18:00:00,
2013-06-01 14:05:00,83.2,66.4,29.72,SSW,196,16.0,-999.0,57,0.00,,,0.00,Wunderground v.1.15,2013-06-01 18:05:00,
2013-06-01 14:10:00,83.4,66.6,29.73,SSW,207,17.0,-999.0,57,0.00,,,0.00,Wunderground v.1.15,2013-06-01 18:10:00,
2013-06-01 14:15:00,83.6,65.7,29.73,SW,225,17.0,-999.0,55,0.00,,,0.00,Wunderground v.1.15,2013-06-01 18:15:00,
2013-06-01 14:20:00,83.8,66.9,29.73,SSW,201,17.0,-999.0,57,0.00,,,0.00,Wunderground v.1.15,2013-06-01 18:20:00,
2013-06-01 14:25:00,83.8,66.4,29.73,SSW,207,17.0,-999.0,56,0.00,,,0.00,Wunderground v.1.15,2013-06-01 18:25:00,
2013-06-01 14:30:00,83.7,66.3,29.73,SSW,206,17.0,-999.0,56,0.00,,,0.00,Wunderground v.1.15,2013-06-01 18:30:00,
2013-06-01 18:15:00,83.0,65.7,29.67,SSW,207,13.0,-999.0,56,0.00,,,0.00,Wunderground v.1.15,2013-06-01 22:15:00,
2013-06-01 18:20:00,82.8,66.0,29.67,SSW,209,14.0,-999.0,57,0.00,,,0.00,Wunderground v.1.15,2013-06-01 22:20:00,
2013-06-01 18:25:00,82.6,65.8,29.67,SW,216,15.0,-999.0,57,0.00,,,0.00,Wunderground v.1.15,2013-06-01 22:25:00,
2013-06-01 18:30:00,82.5,65.7,29.67,SSW,194,14.0,-999.0,57,0.00,,,0.00,Wunderground v.1.15,2013-06-01 22:30:00,
2013-06-01 18:35:00,82.6,66.3,29.67,SW,216,12.0,-999.0,58,0.00,,,0.00,Wunderground v.1.15,2013-06-01 22:35:00,
2013-06-01 18:40:00,82.8,66.5,29.67,SW,227,11.0,-999.0,58,0.00,,,0.00,Wunderground v.1.15,2013-06-01 22:40:00,
2013-06-01 18:50:00,82.7,66.4,29.68,SW,227,9.0,-999.0,58,0.00,,,0.00,Wunderground v.1.15,2013-06-01 22:50:00,
2013-06-01 18:55:00,81.1,66.4,29.69,WNW,298,10.0,-999.0,61,0.00,,,0.00,Wunderground v.1.15,2013-06-01 22:55:00,
2013-06-01 19:00:00,78.0,66.6,29.69,West,273,10.0,-999.0,68,0.00,,,0.00,Wunderground v.1.15,2013-06-01 23:00:00,
2013-06-01 19:05:00,77.1,67.0,29.69,West,267,8.0,-999.0,71,0.00,,,0.00,Wunderground v.1.15,2013-06-01 23:05:00,
2013-06-01 19:10:00,76.4,66.7,29.70,West,273,8.0,-999.0,72,0.00,,,0.00,Wunderground v.1.15,2013-06-01 23:10:00,
2013-06-01 19:15:00,75.4,66.9,29.71,West,271,8.0,-999.0,75,0.00,,,0.00,Wunderground v.1.15,2013-06-01 23:15:00,
2013-06-01 19:20:00,74.7,67.0,29.71,West,273,7.0,-999.0,77,0.00,,,0.00,Wunderground v.1.15,2013-06-01 23:20:00,
2013-06-01 19:25:00,74.2,66.9,29.71,WNW,283,8.0,-999.0,78,0.00,,,0.00,Wunderground v.1.15,2013-06-01 23:25:00,
2013-06-01 19:30:00,73.6,66.7,29.71,West,275,8.0,-999.0,79,0.00,,,0.00,Wunderground v.1.15,2013-06-01 23:30:00,
2013-06-01 19:35:00,73.1,66.6,29.71,West,277,7.0,-999.0,80,0.00,,,0.00,Wunderground v.1.15,2013-06-01 23:35:00,
2013-06-01 19:40:00,72.7,66.5,29.71,West,269,8.0,-999.0,81,0.00,,,0.00,Wunderground v.1.15,2013-06-01 23:40:00,
2013-06-01 19:45:00,72.4,66.2,29.71,West,269,9.0,-999.0,81,0.00,,,0.00,Wunderground v.1.15,2013-06-01 23:45:00,
2013-06-01 19:50:00,72.1,66.3,29.71,WNW,291,11.0,-999.0,82,0.00,,,0.00,Wunderground v.1.15,2013-06-01 23:50:00,
2013-06-01 19:55:00,71.8,66.0,29.71,West,275,12.0,-999.0,82,0.00,,,0.00,Wunderground v.1.15,2013-06-01 23:55:00,
2013-06-01 20:00:00,71.7,66.3,29.71,West,265,12.0,-999.0,83,0.00,,,0.00,Wunderground v.1.15,2013-06-02 00:00:00,
2013-06-01 20:05:00,71.6,66.5,29.71,West,281,10.0,-999.0,84,0.00,,,0.00,Wunderground v.1.15,2013-06-02 00:05:00,
2013-06-01 20:10:00,71.6,66.5,29.73,WNW,288,9.0,-999.0,84,0.00,,,0.00,Wunderground v.1.15,2013-06-02 00:10:00,
2013-06-01 20:15:00,71.1,66.7,29.72,NW,308,10.0,-999.0,86,0.00,,,0.01,Wunderground v.1.15,2013-06-02 00:15:00,
2013-06-01 20:20:00,70.7,66.6,29.71,NW,304,9.0,-999.0,87,0.00,,,0.01,Wunderground v.1.15,2013-06-02 00:20:00,
2013-06-01 20:25:00,70.3,66.6,29.71,WNW,287,7.0,-999.0,88,0.00,,,0.01,Wunderground v.1.15,2013-06-02 00:25:00,
2013-06-01 20:30:00,70.0,66.6,29.70,West,277,6.0,-999.0,89,0.00,,,0.01,Wunderground v.1.15,2013-06-02 00:30:00,
2013-06-01 20:35:00,69.8,66.7,29.71,West,275,6.0,-999.0,90,0.00,,,0.01,Wunderground v.1.15,2013-06-02 00:35:00,
2013-06-01 20:40:00,69.6,66.5,29.71,West,265,6.0,-999.0,90,0.00,,,0.01,Wunderground v.1.15,2013-06-02 00:40:00,
2013-06-01 20:45:00,69.5,66.4,29.71,WNW,288,7.0,-999.0,90,0.00,,,0.01,Wunderground v.1.15,2013-06-02 00:45:00,
2013-06-01 20:50:00,69.6,66.9,29.70,West,269,7.0,-999.0,91,0.00,,,0.01,Wunderground v.1.15,2013-06-02 00:50:00,
2013-06-01 20:55:00,69.5,66.8,29.70,West,268,7.0,-999.0,91,0.00,,,0.01,Wunderground v.1.15,2013-06-02 00:55:00,
2013-06-01 21:00:00,69.6,66.9,29.71,West,274,8.0,-999.0,91,0.00,,,0.01,Wunderground v.1.15,2013-06-02 01:00:00,
2013-06-01 21:15:00,69.6,66.9,29.72,WSW,254,9.0,-999.0,91,0.00,,,0.01,Wunderground v.1.15,2013-06-02 01:15:00,
2013-06-01 21:20:00,69.5,66.8,29.71,West,265,9.0,-999.0,91,0.00,,,0.01,Wunderground v.1.15,2013-06-02 01:20:00,
2013-06-01 21:25:00,69.4,66.7,29.71,West,263,9.0,-999.0,91,0.00,,,0.02,Wunderground v.1.15,2013-06-02 01:25:00,
2013-06-01 21:30:00,69.4,66.7,29.71,West,264,8.0,-999.0,91,0.00,,,0.02,Wunderground v.1.15,2013-06-02 01:30:00,
2013-06-01 21:35:00,69.3,66.6,29.71,WSW,254,7.0,-999.0,91,0.00,,,0.02,Wunderground v.1.15,2013-06-02 01:35:00,
2013-06-01 21:40:00,69.3,66.6,29.71,WSW,237,6.0,-999.0,91,0.00,,,0.02,Wunderground v.1.15,2013-06-02 01:40:00,
2013-06-01 21:45:00,69.2,66.5,29.71,SW,236,5.0,-999.0,91,0.00,,,0.02,Wunderground v.1.15,2013-06-02 01:45:00,
2013-06-01 21:50:00,69.3,66.6,29.71,SW,236,4.0,-999.0,91,0.00,,,0.02,Wunderground v.1.15,2013-06-02 01:50:00,
2013-06-01 21:55:00,69.2,66.5,29.71,SW,236,3.0,-999.0,91,0.00,,,0.02,Wunderground v.1.15,2013-06-02 01:55:00,
2013-06-01 22:00:00,69.2,66.8,29.71,SW,236,1.0,-999.0,92,0.00,,,0.02,Wunderground v.1.15,2013-06-02 02:00:00,
2013-06-01 22:05:00,69.1,66.7,29.70,SW,236,0.0,-999.0,92,0.00,,,0.02,Wunderground v.1.15,2013-06-02 02:05:00,
2013-06-01 22:10:00,69.1,66.7,29.70,SW,236,0.0,-999.0,92,0.00,,,0.02,Wunderground v.1.15,2013-06-02 02:10:00,